Other Public Products
Issued by NWS Grand Forks, ND

Home | Current Version | Previous Version | Graphics & Text | Print | Product List | Glossary On
Versions: 1 2 3 4 5 6 7 8 9 10 11 12 13 14 15 16 17 18 19 20 21 22 23 24 25 26 27 28 29 30 31 32 33 34 35 36 37 38 39 40 41 42 43 44 45 46 47 48 49 50
432
FPUS83 KFGF 210431
OPUFGF
PRAIRIE TO PINES WEATHER ROUNDUP
NATIONAL WEATHER SERVICE EASTERN NORTH DAKOTA/GRAND FORKS ND
1100 PM CDT FRI APR 20 2018

 **SATELLITE DATA USED TO AUGMENT SKY COVER AT AUTOMATED STATIONS**
 *****  WEATHER ACROSS EASTERN NORTH DAKOTA  *****

CITY           SKY/WX    TMP DP  RH WIND       PRES   REMARKS
GRAND FORKS    FAIR      38  32  79 S7        30.35S
GRND FORKS AFB FAIR      40  31  69 S7        30.35S
GRND FORKS NWS   N/A     44  36  74 S5        30.32F
BUXTON           N/A     42  41  95 S8          N/A
DEVILS LAKE    FAIR      38  32  79 SE8       30.32S
FARGO          FAIR      44  35  70 S12       30.38R
WAHPETON ARPT  FAIR      37  34  87 SE9       30.39F
$$

 *****  WEATHER ACROSS CENTRAL AND WESTERN NORTH DAKOTA  *****

CITY           SKY/WX    TMP DP  RH WIND       PRES   REMARKS
JAMESTOWN      CLOUDY    42  36  79 S10       30.32F
BISMARCK       FAIR      41  32  70 S7        30.29F
MINOT          FAIR      42  33  70 SE7       30.22S
MINOT AFB      FAIR      40  36  85 S10       30.20S
GARRISON         N/A     42  32  67 S12       30.23F
WILLISTON      FAIR      52  35  52 S10       30.14S
DICKINSON      FAIR      43  38  82 S12       30.19S
HETTINGER      MOCLDY    41  35  79 S12       30.23S
$$

 *****  OTHER OBSERVATIONS NORTHEAST NORTH DAKOTA  *****

CITY           SKY/WX    TMP DP  RH WIND       PRES   REMARKS
WALHALLA       FAIR      43  32  65 S8        30.32F
LANGDON        FAIR      37  37 100 SE12      30.31F
CAVALIER         N/A     39  32  75 S7        30.33S
GRAFTON        FAIR      36  30  80 S10       30.36S
CANDO          FAIR      36  36 100 SE10      30.31F
FORT TOTTEN      N/A     42  31  65 SE8       29.95S
ROLLA          FAIR      39  37  93 S12       30.28S
RUGBY          FAIR      41  37  87 S10       30.26S
 ***** THE ABOVE OBSERVATIONS ARE NON NWS ARE NOT QUALITY
        CONTROLLED AND MAY MIS-REPORT RAIN FOR SNOW...
$$

 *****  OTHER OBSERVATIONS SOUTHEAST NORTH DAKOTA *****

CITY           SKY/WX    TMP DP  RH WIND       PRES   REMARKS
COOPERSTOWN    FAIR      39  37  93 S10       30.34S
VALLEY CITY    CLOUDY    39  39 100 S7        30.36S
OAKES            N/A     36  37 100 S7        30.36R
GWINNER          N/A     37  37 100 CALM      30.36S
SHEYENNE NWR     N/A     39  39 100 S6        29.95S
BUFFALO          N/A     41  37  86 E10         N/A
WYNDMERE       NOT AVBL
 ***** THE ABOVE OBSERVATIONS ARE NON NWS ARE NOT QUALITY
       CONTROLLED AND MAY MIS-REPORT RAIN FOR SNOW...
$$

  *****  WEATHER ACROSS NORTHERN MINNESOTA  *****

CITY           SKY/WX    TMP DP  RH WIND       PRES   REMARKS
FLAG ISLAND    FAIR      37  28  70 SW3       30.35R
WARROAD        FAIR      37  34  87 CALM      30.36S
ROSEAU         FAIR      39  34  81 CALM      30.36S
HALLOCK        FAIR      39  36  87 SE7       30.35S
THF RVR FALLS  FAIR      40  36  86 S3        30.38S
HALSTAD        NOT AVBL
FOSSTON        FAIR      34  25  69 S6        30.39S
BAUDETTE       FAIR      38  33  82 CALM      30.35S
WASKISH        FAIR      30  25  80 CALM      30.37R
CROOKSTON      FAIR      39  34  81 S6        30.38S
$$
  *****  WEATHER ACROSS CENTRAL AND WEST MINNESOTA  *****

CITY           SKY/WX    TMP DP  RH WIND       PRES   REMARKS
BEMIDJI        FAIR      41  22  47 SW5       30.39S
PARK RAPIDS    FAIR      38  25  59 S7        30.39S
WADENA         FAIR      37  30  75 CALM      30.40F
DETROIT LAKES  FAIR      39  28  65 CALM      30.40F
MOORHEAD       FAIR      41  36  81 S8        30.40S
FERGUS FALLS   FAIR      36  32  87 S8        30.39F
ELBOW LAKE     FAIR      32  31  95 E7        30.41F
MORRIS MN      FAIR      36  32  87 S6        30.40F
STAPLES        FAIR      36  25  64 S6        30.41F
WHEATON        FAIR      37  32  81 SE9       30.42S
$$
  *****  WEATHER ELSEWHERE ACROSS MINNESOTA  *****

CITY           SKY/WX    TMP DP  RH WIND       PRES   REMARKS
DULUTH         FAIR      42  23  46 W8        30.40R
INTRNTL FALLS  FAIR      33  27  78 CALM      30.35S
ELY            FAIR      30  21  69 CALM      30.37S
CLOQUET        FAIR      41  12  30 SW5       30.41S
BRAINERD       FAIR      39  23  52 S6        30.42S
HIBBING        FAIR      42  20  41 SW6       30.38R
ALEXANDRIA     FAIR      40  32  73 S7        30.42S
SAINT CLOUD    FAIR      36  23  59 CALM      30.44R
MINNEAPOLIS    CLOUDY    44  26  49 CALM      30.45R
$$

  *****  WEATHER ACROSS SOUTH DAKOTA  *****

CITY           SKY/WX    TMP DP  RH WIND       PRES   REMARKS
SIOUX FALLS    CLOUDY    41  34  76 E5        30.39S
BROOKINGS      CLOUDY    39  33  79 SE8       30.39F
WATERTOWN      FAIR      38  36  92 S6        30.37S
HURON          MOCLDY    42  37  82 SE5       30.36F
SISSETON         N/A     38  36  92 SE5       30.38S
ABERDEEN       FAIR      39  36  89 S8        30.36S
MITCHELL       CLOUDY    41  37  86 S8        30.38F
PIERRE         CLOUDY    41  41 100 SE9       30.31F
MOBRIDGE       CLOUDY    45  37  73 SE9       30.28F
RAPID CITY     CLOUDY    39  38  96 SE12      30.23S
$$

  *****  SOME WEATHER IN NEARBY STATES *****

CITY           SKY/WX    TMP DP  RH WIND       PRES   REMARKS
GLASGOW MT     FAIR      50  37  61 E8        30.06F
GREAT FALLS MT FAIR      43  25  49 SW8       30.07R
CHEYENNE WY    FRZ RAIN  32  32 100 SE10      30.10R FOG     WCI  24
SCOTTSBLUFF NE LGT RAIN  37  32  82 SE18      30.18R
OMAHA NE       CLOUDY    55  27  34 E14       30.30F
DES MOINES IA  CLOUDY    53  26  35 E7        30.37S
DAVENPORT IA   FAIR      48  24  39 CALM      30.42S
CHICAGO IL     MOCLDY    46  14  27 E3        30.43F
EAU CLAIRE WI  FAIR      39  23  52 CALM      30.43S
LA CROSSE WI   FAIR      43  31  62 CALM      30.44R
$$

  *****  SOME NATIONAL WEATHER *****

CITY           SKY/WX    TMP DP  RH WIND       PRES   REMARKS
LA GUARDIA NY  FAIR      43  25  49 NW9       30.37R
RALEIGH NC     FAIR      44  32  62 CALM      30.35R
ATLANTA GA     FAIR      56  35  45 SE3       30.29S
NEW ORLEANS LA MOCLDY    58  49  72 CALM      30.18F
OKLAHOMA CITY  CLOUDY    57  37  47 SE23      30.05F
ALBUQUERQUE NM MOCLDY    47  29  49 NW18      30.07R
SALT LAKE CITY FAIR      57  35  43 SE3       30.06R
LOS ANGELES CA FAIR      58  51  78 SW5       30.10R
BOISE ID       FAIR      57  29  34 NE5       30.09R
SEATTLE WA     CLOUDY    54  37  52 SW8       30.17R
$$

*** WEATHER ACROSS MANITOBA...SASKATCHEWAN AND ONTARIO ***
                ***ONTARIO***

CITY           SKY/WX    TMP DP  RH WIND       PRES   REMARKS
GERALDTON      CLEAR     34  18  51 NW2       30.37S
THUNDER BAY    MOCLDY    34  25  69 CALM      30.38S
SIOUX LOOKOUT  CLOUDY    30  18  59 CALM      30.33F
TORONTO        PTCLDY    36  23  60 W6        30.42R
BIG TROUT LK   CLEAR     37  19  48 SE7       30.34R
PICKLE LAKE    NOT AVBL
DRYDEN         CLEAR     46  18  31 S3        30.33F
KENORA         MOCLDY    45  23  42 SW6       30.33S
$$
                *** MANITOBA***

CITY           SKY/WX    TMP DP  RH WIND       PRES   REMARKS
BRANDON        CLEAR     41  32  70 SE8       30.25S
DAUPHIN        CLEAR     39  34  81 CALM      30.22F
ISLAND LAKE    CLEAR     36  21  55 S3        30.26S
PILOT MOUND      N/A     39  30  70 S12         N/A
THE PAS        PTCLDY    36  28  75 SE10      30.13S
THOMPSON       PTCLDY    45  18  33 S7        30.16S
WINNIPEG       CLEAR     45  30  57 S17       30.32S
LYNN LAKE      CLOUDY    43  25  49 S6        30.02F
CHURCHILL      MOCLDY    43  28  56 S15G22    30.07F
GILLAM         PTCLDY    43  19  39 S8        30.20S
$$
                ***SASKATCHEWAN***

CITY           SKY/WX    TMP DP  RH WIND       PRES   REMARKS
ESTEVAN        PTCLDY    41  34  75 SE9       30.15F
KINDERSLEY     CLOUDY    46  36  66 W8        30.00S
LLOYDMINSTER   MOCLDY    41  34  75 S8        29.99S
PRINCE ALBERT  PTCLDY    36  32  87 VRB5      30.07S
REGINA         PTCLDY    46  37  71 SE17      30.12S
YORKTON        CLEAR     39  34  81 SE10      30.17F



USA.gov is the U.S. government's official web portal to all federal, state and local government web resources and services.